Time,TemperatureF,DewpointF,PressureIn,WindDirection,WindDirectionDegrees,WindSpeedMPH,WindSpeedGustMPH,Humidity,HourlyPrecipIn,Conditions,Clouds,dailyrainin,SoftwareType,DateUTC
2013-02-10 00:00:00,40.7,23.9,30.18,SSE,158,1.6,2.2,51,0.00,,,0.00,WUHU216HW,2013-02-10 05:00:00,
2013-02-10 00:05:00,40.5,23.8,30.19,SE,135,1.3,2.2,51,0.00,,,0.00,WUHU216HW,2013-02-10 05:05:00,
2013-02-10 00:10:00,40.5,23.8,30.19,West,270,0.0,2.2,51,0.00,,,0.00,WUHU216HW,2013-02-10 05:10:00,
2013-02-10 00:15:00,40.3,23.6,30.19,East,90,0.0,1.3,51,0.00,,,0.00,WUHU216HW,2013-02-10 05:15:00,
2013-02-10 00:20:00,40.3,23.6,30.19,SSW,203,0.0,0.7,51,0.00,,,0.00,WUHU216HW,2013-02-10 05:20:00,
2013-02-10 00:25:00,40.3,23.6,30.19,SSW,203,0.0,0.4,51,0.00,,,0.00,WUHU216HW,2013-02-10 05:25:00,
2013-02-10 00:30:00,40.3,23.6,30.19,NE,45,0.0,0.7,51,0.00,,,0.00,WUHU216HW,2013-02-10 05:30:00,
2013-02-10 00:35:00,40.3,23.6,30.19,NE,45,0.0,1.1,51,0.00,,,0.00,WUHU216HW,2013-02-10 05:35:00,
2013-02-10 00:40:00,40.3,23.6,30.18,NNE,23,0.0,1.3,51,0.00,,,0.00,WUHU216HW,2013-02-10 05:40:00,
2013-02-10 00:45:00,40.5,23.8,30.19,NNE,23,0.0,1.3,51,0.00,,,0.00,WUHU216HW,2013-02-10 05:45:00,
2013-02-10 00:50:00,40.5,23.8,30.19,NNE,23,0.9,0.9,51,0.00,,,0.00,WUHU216HW,2013-02-10 05:50:00,
2013-02-10 00:55:00,40.5,23.8,30.19,North,0,0.7,1.1,51,0.00,,,0.00,WUHU216HW,2013-02-10 05:55:00,
2013-02-10 01:00:00,40.3,23.6,30.19,NNE,23,0.7,1.3,51,0.00,,,0.00,WUHU216HW,2013-02-10 06:00:00,
2013-02-10 01:05:00,40.1,23.9,30.19,NNE,23,0.0,1.3,52,0.00,,,0.00,WUHU216HW,2013-02-10 06:05:00,
2013-02-10 01:10:00,40.0,23.7,30.19,NNE,23,0.0,0.4,52,0.00,,,0.00,WUHU216HW,2013-02-10 06:10:00,
2013-02-10 01:15:00,40.0,23.7,30.19,NNE,23,0.0,0.0,52,0.00,,,0.00,WUHU216HW,2013-02-10 06:15:00,
2013-02-10 01:20:00,40.0,24.1,30.18,SE,135,0.7,1.1,53,0.00,,,0.00,WUHU216HW,2013-02-10 06:20:00,
2013-02-10 01:25:00,40.0,24.1,30.19,SSE,158,0.2,1.1,53,0.00,,,0.00,WUHU216HW,2013-02-10 06:25:00,
2013-02-10 01:30:00,40.0,24.1,30.19,SE,135,0.4,1.8,53,0.00,,,0.00,WUHU216HW,2013-02-10 06:30:00,
2013-02-10 01:35:00,40.1,23.9,30.19,ESE,113,0.2,1.8,52,0.00,,,0.00,WUHU216HW,2013-02-10 06:35:00,
2013-02-10 01:40:00,40.1,23.9,30.19,SE,135,0.4,2.0,52,0.00,,,0.00,WUHU216HW,2013-02-10 06:40:00,
2013-02-10 01:45:00,40.3,24.0,30.19,SE,135,0.9,2.0,52,0.00,,,0.00,WUHU216HW,2013-02-10 06:45:00,
2013-02-10 01:50:00,40.3,24.0,30.18,SE,135,0.0,1.8,52,0.00,,,0.00,WUHU216HW,2013-02-10 06:50:00,
2013-02-10 01:55:00,40.3,24.0,30.18,SSE,158,0.0,1.8,52,0.00,,,0.00,WUHU216HW,2013-02-10 06:55:00,
2013-02-10 02:00:00,40.3,24.0,30.19,NE,45,0.0,1.1,52,0.00,,,0.00,WUHU216HW,2013-02-10 07:00:00,
2013-02-10 02:05:00,40.3,24.0,30.18,NE,45,0.0,0.2,52,0.00,,,0.00,WUHU216HW,2013-02-10 07:05:00,
2013-02-10 02:10:00,40.3,24.0,30.19,NE,45,0.0,0.2,52,0.00,,,0.00,WUHU216HW,2013-02-10 07:10:00,
2013-02-10 02:15:00,40.3,24.0,30.18,NE,45,0.0,0.2,52,0.00,,,0.00,WUHU216HW,2013-02-10 07:15:00,
2013-02-10 02:20:00,40.3,24.0,30.18,North,0,0.2,1.1,52,0.00,,,0.00,WUHU216HW,2013-02-10 07:20:00,
2013-02-10 02:25:00,40.3,24.0,30.19,North,0,0.0,1.1,52,0.00,,,0.00,WUHU216HW,2013-02-10 07:25:00,
2013-02-10 02:30:00,40.1,23.9,30.18,North,0,0.0,0.2,52,0.00,,,0.00,WUHU216HW,2013-02-10 07:30:00,
2013-02-10 02:35:00,40.1,24.3,30.18,North,0,0.0,0.0,53,0.00,,,0.00,WUHU216HW,2013-02-10 07:35:00,
2013-02-10 02:40:00,40.0,24.1,30.18,North,0,0.0,0.2,53,0.00,,,0.00,WUHU216HW,2013-02-10 07:40:00,
2013-02-10 02:45:00,40.1,23.9,30.18,North,0,0.0,0.2,52,0.00,,,0.00,WUHU216HW,2013-02-10 07:45:00,
2013-02-10 02:50:00,40.1,24.3,30.18,North,0,0.0,0.2,53,0.00,,,0.00,WUHU216HW,2013-02-10 07:50:00,
2013-02-10 02:55:00,40.1,24.3,30.18,North,0,0.0,0.0,53,0.00,,,0.00,WUHU216HW,2013-02-10 07:55:00,
2013-02-10 03:00:00,40.1,24.3,30.18,North,0,0.0,0.0,53,0.00,,,0.00,WUHU216HW,2013-02-10 08:00:00,
2013-02-10 03:05:00,40.0,24.1,30.19,North,0,0.0,0.0,53,0.00,,,0.00,WUHU216HW,2013-02-10 08:05:00,
2013-02-10 03:10:00,40.0,24.1,30.20,West,270,0.0,0.0,53,0.00,,,0.00,WUHU216HW,2013-02-10 08:10:00,
2013-02-10 03:15:00,40.0,24.1,30.20,SE,135,0.0,0.4,53,0.00,,,0.00,WUHU216HW,2013-02-10 08:15:00,
2013-02-10 03:20:00,39.8,24.4,30.18,ENE,68,1.8,1.8,54,0.00,,,0.00,WUHU216HW,2013-02-10 08:20:00,
2013-02-10 03:25:00,39.8,24.4,30.17,NE,45,1.1,1.8,54,0.00,,,0.00,WUHU216HW,2013-02-10 08:25:00,
2013-02-10 03:30:00,39.8,24.4,30.17,ESE,113,0.4,2.0,54,0.00,,,0.00,WUHU216HW,2013-02-10 08:30:00,
2013-02-10 03:35:00,39.8,24.9,30.18,SSE,158,0.0,2.0,55,0.00,,,0.00,WUHU216HW,2013-02-10 08:35:00,
2013-02-10 03:40:00,39.8,24.9,30.18,SE,135,0.0,1.1,55,0.00,,,0.00,WUHU216HW,2013-02-10 08:40:00,
2013-02-10 03:45:00,39.8,24.9,30.18,SE,135,0.0,0.2,55,0.00,,,0.00,WUHU216HW,2013-02-10 08:45:00,
2013-02-10 03:50:00,39.6,25.5,30.18,West,270,0.0,0.9,57,0.00,,,0.00,WUHU216HW,2013-02-10 08:50:00,
2013-02-10 03:55:00,39.4,25.4,30.18,North,0,0.4,0.9,57,0.00,,,0.00,WUHU216HW,2013-02-10 08:55:00,
2013-02-10 04:00:00,39.4,24.9,30.18,NNE,23,0.0,0.7,56,0.00,,,0.00,WUHU216HW,2013-02-10 09:00:00,
2013-02-10 04:05:00,39.4,24.9,30.18,North,0,0.0,0.4,56,0.00,,,0.00,WUHU216HW,2013-02-10 09:05:00,
2013-02-10 04:10:00,39.2,24.8,30.18,ESE,113,1.3,1.8,56,0.00,,,0.00,WUHU216HW,2013-02-10 09:10:00,
2013-02-10 04:15:00,39.4,24.9,30.18,ESE,113,0.9,2.0,56,0.00,,,0.00,WUHU216HW,2013-02-10 09:15:00,
2013-02-10 04:20:00,39.4,24.9,30.18,NW,315,0.2,2.0,56,0.00,,,0.00,WUHU216HW,2013-02-10 09:20:00,
2013-02-10 04:25:00,39.2,25.2,30.18,North,0,0.0,1.1,57,0.00,,,0.00,WUHU216HW,2013-02-10 09:25:00,
2013-02-10 04:30:00,39.2,25.2,30.18,NE,45,0.0,1.1,57,0.00,,,0.00,WUHU216HW,2013-02-10 09:30:00,
2013-02-10 04:35:00,39.2,25.2,30.18,ENE,68,0.0,1.1,57,0.00,,,0.00,WUHU216HW,2013-02-10 09:35:00,
2013-02-10 04:40:00,39.2,25.2,30.18,SE,135,0.0,0.7,57,0.00,,,0.00,WUHU216HW,2013-02-10 09:40:00,
2013-02-10 04:45:00,39.2,25.6,30.18,NE,45,0.7,1.1,58,0.00,,,0.00,WUHU216HW,2013-02-10 09:45:00,
2013-02-10 04:49:00,39.2,25.6,30.18,SE,135,0.4,1.1,58,0.00,,,0.00,WUHU216HW,2013-02-10 09:49:00,
2013-02-10 04:54:00,39.2,25.6,30.19,SE,135,0.0,1.1,58,0.00,,,0.00,WUHU216HW,2013-02-10 09:54:00,
2013-02-10 04:59:00,39.2,25.6,30.19,SSE,158,0.0,0.4,58,0.00,,,0.00,WUHU216HW,2013-02-10 09:59:00,
2013-02-10 05:04:00,39.2,25.6,30.19,NNE,23,0.4,1.1,58,0.00,,,0.00,WUHU216HW,2013-02-10 10:04:00,
2013-02-10 05:09:00,39.2,25.6,30.19,NNE,23,0.2,1.3,58,0.00,,,0.00,WUHU216HW,2013-02-10 10:09:00,
2013-02-10 05:14:00,39.2,25.6,30.18,NE,45,1.1,1.3,58,0.00,,,0.00,WUHU216HW,2013-02-10 10:14:00,
2013-02-10 05:19:00,39.2,25.6,30.18,SE,135,1.3,1.3,58,0.00,,,0.00,WUHU216HW,2013-02-10 10:19:00,
2013-02-10 05:24:00,39.4,25.7,30.18,SE,135,0.7,1.6,58,0.00,,,0.00,WUHU216HW,2013-02-10 10:24:00,
2013-02-10 05:29:00,39.4,25.7,30.18,SE,135,0.4,1.8,58,0.00,,,0.00,WUHU216HW,2013-02-10 10:29:00,
2013-02-10 05:34:00,39.4,25.7,30.18,SE,135,0.0,1.8,58,0.00,,,0.00,WUHU216HW,2013-02-10 10:34:00,
2013-02-10 05:39:00,39.4,26.2,30.19,West,270,0.4,1.1,59,0.00,,,0.00,WUHU216HW,2013-02-10 10:39:00,
2013-02-10 05:44:00,39.2,26.0,30.20,West,270,0.0,0.4,59,0.00,,,0.00,WUHU216HW,2013-02-10 10:44:00,
2013-02-10 05:49:00,39.1,26.3,30.21,WSW,248,0.0,0.4,60,0.00,,,0.00,WUHU216HW,2013-02-10 10:49:00,
2013-02-10 05:54:00,39.1,26.3,30.20,NNE,23,0.4,1.3,60,0.00,,,0.00,WUHU216HW,2013-02-10 10:54:00,
2013-02-10 05:59:00,39.1,25.8,30.20,ENE,68,1.1,1.3,59,0.00,,,0.00,WUHU216HW,2013-02-10 10:59:00,
2013-02-10 06:04:00,39.1,25.8,30.20,ESE,113,0.9,1.3,59,0.00,,,0.00,WUHU216HW,2013-02-10 11:04:00,
2013-02-10 06:09:00,39.1,25.8,30.20,SE,135,1.1,1.3,59,0.00,,,0.00,WUHU216HW,2013-02-10 11:09:00,
2013-02-10 06:14:00,39.2,26.0,30.20,ESE,113,0.2,1.3,59,0.00,,,0.00,WUHU216HW,2013-02-10 11:14:00,
2013-02-10 06:19:00,39.2,26.5,30.20,ESE,113,0.0,1.1,60,0.00,,,0.00,WUHU216HW,2013-02-10 11:19:00,
2013-02-10 06:24:00,39.2,26.5,30.20,ESE,113,0.4,0.4,60,0.00,,,0.00,WUHU216HW,2013-02-10 11:24:00,
2013-02-10 06:29:00,39.2,26.5,30.21,ESE,113,0.4,1.1,60,0.00,,,0.00,WUHU216HW,2013-02-10 11:29:00,
2013-02-10 06:34:00,39.2,26.5,30.20,NE,45,0.4,1.1,60,0.00,,,0.00,WUHU216HW,2013-02-10 11:34:00,
2013-02-10 06:39:00,39.4,26.2,30.19,NNE,23,1.1,1.3,59,0.00,,,0.00,WUHU216HW,2013-02-10 11:39:00,
2013-02-10 06:44:00,39.6,26.8,30.21,SSE,158,2.7,2.7,60,0.00,,,0.00,WUHU216HW,2013-02-10 11:44:00,
2013-02-10 06:49:00,39.6,26.4,30.20,SE,135,0.9,2.7,59,0.00,,,0.00,WUHU216HW,2013-02-10 11:49:00,
2013-02-10 06:54:00,39.8,26.6,30.21,NNE,23,0.4,2.7,59,0.00,,,0.00,WUHU216HW,2013-02-10 11:54:00,
2013-02-10 06:59:00,39.8,26.6,30.20,SE,135,1.1,1.1,59,0.00,,,0.00,WUHU216HW,2013-02-10 11:59:00,
2013-02-10 07:04:00,39.8,26.6,30.20,South,180,0.4,2.0,59,0.00,,,0.00,WUHU216HW,2013-02-10 12:04:00,
2013-02-10 07:09:00,39.8,26.1,30.20,ESE,113,1.1,2.0,58,0.00,,,0.00,WUHU216HW,2013-02-10 12:09:00,
2013-02-10 07:14:00,39.8,26.1,30.20,NNE,23,0.0,1.8,58,0.00,,,0.00,WUHU216HW,2013-02-10 12:14:00,
2013-02-10 07:19:00,39.8,26.1,30.20,ESE,113,0.0,1.3,58,0.00,,,0.00,WUHU216HW,2013-02-10 12:19:00,
2013-02-10 07:24:00,39.6,25.9,30.20,SE,135,0.4,0.7,58,0.00,,,0.00,WUHU216HW,2013-02-10 12:24:00,
2013-02-10 07:29:00,39.6,25.9,30.20,SE,135,0.0,0.7,58,0.00,,,0.00,WUHU216HW,2013-02-10 12:29:00,
2013-02-10 07:34:00,39.6,25.9,30.19,NE,45,0.9,2.7,58,0.00,,,0.00,WUHU216HW,2013-02-10 12:34:00,
2013-02-10 07:39:00,39.8,26.1,30.20,SE,135,0.2,2.7,58,0.00,,,0.00,WUHU216HW,2013-02-10 12:39:00,
2013-02-10 07:44:00,39.8,26.1,30.20,SSE,158,1.1,1.1,58,0.00,,,0.00,WUHU216HW,2013-02-10 12:44:00,
2013-02-10 07:49:00,40.0,26.3,30.20,SE,135,1.6,1.8,58,0.00,,,0.00,WUHU216HW,2013-02-10 12:49:00,
2013-02-10 07:54:00,40.0,26.3,30.20,SE,135,2.2,2.5,58,0.00,,,0.00,WUHU216HW,2013-02-10 12:54:00,
2013-02-10 07:59:00,40.0,26.3,30.19,SE,135,0.7,2.7,58,0.00,,,0.00,WUHU216HW,2013-02-10 12:59:00,
2013-02-10 08:04:00,40.1,26.5,30.19,ESE,113,0.0,2.7,58,0.00,,,0.00,WUHU216HW,2013-02-10 13:04:00,
2013-02-10 08:09:00,40.3,26.6,30.20,SE,135,0.4,1.6,58,0.00,,,0.00,WUHU216HW,2013-02-10 13:09:00,
2013-02-10 08:14:00,40.3,26.6,30.20,North,0,0.4,1.1,58,0.00,,,0.00,WUHU216HW,2013-02-10 13:14:00,
2013-02-10 08:19:00,40.5,26.8,30.20,North,0,0.0,1.1,58,0.00,,,0.00,WUHU216HW,2013-02-10 13:19:00,
2013-02-10 08:24:00,40.7,27.0,30.20,North,0,0.0,0.7,58,0.00,,,0.00,WUHU216HW,2013-02-10 13:24:00,
2013-02-10 08:29:00,40.9,27.2,30.20,North,0,0.0,0.0,58,0.00,,,0.00,WUHU216HW,2013-02-10 13:29:00,
2013-02-10 08:34:00,41.0,27.4,30.21,North,0,0.0,0.0,58,0.00,,,0.00,WUHU216HW,2013-02-10 13:34:00,
2013-02-10 08:39:00,41.2,27.6,30.21,North,0,0.0,0.2,58,0.00,,,0.00,WUHU216HW,2013-02-10 13:39:00,
2013-02-10 08:44:00,41.4,27.7,30.20,SSE,158,0.9,1.6,58,0.00,,,0.00,WUHU216HW,2013-02-10 13:44:00,
2013-02-10 08:49:00,41.8,28.0,30.20,SSE,158,1.8,3.1,58,0.00,,,0.00,WUHU216HW,2013-02-10 13:49:00,
2013-02-10 08:54:00,42.3,28.1,30.20,SSE,158,2.5,3.8,57,0.00,,,0.00,WUHU216HW,2013-02-10 13:54:00,
2013-02-10 08:59:00,42.8,28.2,30.20,SSE,158,0.2,3.8,56,0.00,,,0.00,WUHU216HW,2013-02-10 13:59:00,
2013-02-10 09:04:00,43.0,28.4,30.20,SSE,158,1.1,2.2,56,0.00,,,0.00,WUHU216HW,2013-02-10 14:04:00,
2013-02-10 09:09:00,43.2,28.1,30.19,SSE,158,0.9,3.6,55,0.00,,,0.00,WUHU216HW,2013-02-10 14:09:00,
2013-02-10 09:14:00,43.6,28.5,30.19,SE,135,1.3,3.6,55,0.00,,,0.00,WUHU216HW,2013-02-10 14:14:00,
2013-02-10 09:19:00,43.7,28.6,30.19,SE,135,3.6,3.8,55,0.00,,,0.00,WUHU216HW,2013-02-10 14:19:00,
2013-02-10 09:24:00,44.3,28.6,30.19,East,90,2.2,3.8,54,0.00,,,0.00,WUHU216HW,2013-02-10 14:24:00,
2013-02-10 09:29:00,44.3,28.6,30.19,SSE,158,2.0,3.8,54,0.00,,,0.00,WUHU216HW,2013-02-10 14:29:00,
2013-02-10 09:34:00,44.6,29.0,30.19,SE,135,2.7,3.8,54,0.00,,,0.00,WUHU216HW,2013-02-10 14:34:00,
2013-02-10 09:39:00,45.0,29.4,30.19,SE,135,2.0,4.0,54,0.00,,,0.00,WUHU216HW,2013-02-10 14:39:00,
2013-02-10 09:44:00,45.2,29.4,30.19,SSE,158,3.1,4.0,54,0.00,,,0.00,WUHU216HW,2013-02-10 14:44:00,
2013-02-10 09:49:00,45.7,29.5,30.19,SSE,158,2.0,3.4,53,0.00,,,0.00,WUHU216HW,2013-02-10 14:49:00,
2013-02-10 09:54:00,46.1,29.8,30.19,SE,135,2.7,4.0,53,0.00,,,0.00,WUHU216HW,2013-02-10 14:54:00,
2013-02-10 09:59:00,46.4,29.7,30.19,SE,135,2.2,4.0,52,0.00,,,0.00,WUHU216HW,2013-02-10 14:59:00,
2013-02-10 10:04:00,46.8,29.6,30.20,SSE,158,0.0,3.6,51,0.00,,,0.00,WUHU216HW,2013-02-10 15:04:00,
2013-02-10 10:09:00,47.2,29.9,30.20,SE,135,1.6,2.2,51,0.00,,,0.00,WUHU216HW,2013-02-10 15:09:00,
2013-02-10 10:14:00,47.2,29.9,30.20,SE,135,2.7,2.7,51,0.00,,,0.00,WUHU216HW,2013-02-10 15:14:00,
2013-02-10 10:19:00,47.5,30.3,30.19,SE,135,3.4,6.0,51,0.00,,,0.00,WUHU216HW,2013-02-10 15:19:00,
2013-02-10 10:24:00,47.9,30.1,30.19,SSE,158,2.9,6.0,50,0.00,,,0.00,WUHU216HW,2013-02-10 15:24:00,
2013-02-10 10:29:00,48.1,30.2,30.19,SE,135,3.4,3.4,50,0.00,,,0.00,WUHU216HW,2013-02-10 15:29:00,
2013-02-10 10:34:00,48.6,30.3,30.19,SE,135,1.8,3.4,49,0.00,,,0.00,WUHU216HW,2013-02-10 15:34:00,
2013-02-10 10:39:00,48.8,30.4,30.19,SE,135,4.0,4.0,49,0.00,,,0.00,WUHU216HW,2013-02-10 15:39:00,
2013-02-10 10:44:00,49.3,31.0,30.19,ESE,113,2.5,4.5,49,0.00,,,0.00,WUHU216HW,2013-02-10 15:44:00,
2013-02-10 10:49:00,49.7,30.8,30.18,South,180,2.0,4.5,48,0.00,,,0.00,WUHU216HW,2013-02-10 15:49:00,
2013-02-10 10:54:00,50.0,30.5,30.19,East,90,2.0,3.8,47,0.00,,,0.00,WUHU216HW,2013-02-10 15:54:00,
2013-02-10 10:59:00,50.2,30.7,30.19,SW,225,0.0,4.7,47,0.00,,,0.00,WUHU216HW,2013-02-10 15:59:00,
2013-02-10 11:04:00,50.4,30.3,30.18,SSE,158,1.6,4.7,46,0.00,,,0.00,WUHU216HW,2013-02-10 16:04:00,
2013-02-10 11:09:00,50.8,30.6,30.18,SSW,203,0.9,2.9,46,0.00,,,0.00,WUHU216HW,2013-02-10 16:09:00,
2013-02-10 11:14:00,51.1,31.0,30.18,SE,135,1.8,4.9,46,0.00,,,0.00,WUHU216HW,2013-02-10 16:14:00,
2013-02-10 11:19:00,51.7,30.9,30.17,SSE,158,1.1,5.4,45,0.00,,,0.00,WUHU216HW,2013-02-10 16:19:00,
2013-02-10 11:24:00,52.0,30.7,30.17,SE,135,4.5,5.4,44,0.00,,,0.00,WUHU216HW,2013-02-10 16:24:00,
2013-02-10 11:29:00,52.4,30.4,30.17,SSE,158,1.1,5.1,43,0.00,,,0.00,WUHU216HW,2013-02-10 16:29:00,
2013-02-10 11:34:00,52.9,31.5,30.17,South,180,2.5,5.1,44,0.00,,,0.00,WUHU216HW,2013-02-10 16:34:00,
2013-02-10 11:40:00,53.5,31.4,30.16,SW,225,1.8,5.1,43,0.00,,,0.00,WUHU216HW,2013-02-10 16:40:00,
2013-02-10 11:45:00,54.4,32.2,30.16,ESE,113,4.9,5.4,43,0.00,,,0.00,WUHU216HW,2013-02-10 16:45:00,
2013-02-10 11:50:00,54.4,31.7,30.15,SE,135,1.8,5.4,42,0.00,,,0.00,WUHU216HW,2013-02-10 16:50:00,
2013-02-10 11:55:00,54.5,31.2,30.16,SE,135,3.6,5.4,41,0.00,,,0.00,WUHU216HW,2013-02-10 16:55:00,
2013-02-10 12:00:00,55.3,31.9,30.16,ESE,113,4.3,5.4,41,0.00,,,0.00,WUHU216HW,2013-02-10 17:00:00,
2013-02-10 12:05:00,55.8,31.9,30.16,SE,135,1.1,5.1,40,0.00,,,0.00,WUHU216HW,2013-02-10 17:05:00,
2013-02-10 12:10:00,56.5,31.8,30.16,SSE,158,2.5,5.1,39,0.00,,,0.00,WUHU216HW,2013-02-10 17:10:00,
2013-02-10 12:15:00,57.2,32.4,30.16,ESE,113,2.5,3.6,39,0.00,,,0.00,WUHU216HW,2013-02-10 17:15:00,
2013-02-10 12:20:00,57.8,33.0,30.15,SE,135,5.1,5.1,39,0.00,,,0.00,WUHU216HW,2013-02-10 17:20:00,
2013-02-10 12:25:00,58.1,32.5,30.14,SSW,203,2.2,6.3,38,0.00,,,0.00,WUHU216HW,2013-02-10 17:25:00,
2013-02-10 12:30:00,58.5,32.1,30.14,SE,135,4.0,6.3,37,0.00,,,0.00,WUHU216HW,2013-02-10 17:30:00,
2013-02-10 12:35:00,58.7,32.3,30.13,SSW,203,3.4,7.4,37,0.00,,,0.00,WUHU216HW,2013-02-10 17:35:00,
2013-02-10 12:40:00,58.7,32.3,30.12,SE,135,3.8,7.6,37,0.00,,,0.00,WUHU216HW,2013-02-10 17:40:00,
2013-02-10 12:45:00,58.9,32.5,30.11,ESE,113,3.4,7.6,37,0.00,,,0.00,WUHU216HW,2013-02-10 17:45:00,
2013-02-10 12:50:00,59.2,32.1,30.11,SE,135,3.4,4.7,36,0.00,,,0.00,WUHU216HW,2013-02-10 17:50:00,
2013-02-10 12:55:00,58.7,31.6,30.10,SE,135,3.4,4.7,36,0.00,,,0.00,WUHU216HW,2013-02-10 17:55:00,
2013-02-10 13:00:00,58.7,31.6,30.10,SE,135,3.4,4.5,36,0.00,,,0.00,WUHU216HW,2013-02-10 18:00:00,
2013-02-10 13:05:00,58.9,31.8,30.08,SSW,203,2.5,6.3,36,0.00,,,0.00,WUHU216HW,2013-02-10 18:05:00,
2013-02-10 13:10:00,59.4,31.5,30.08,SSE,158,2.5,6.3,35,0.00,,,0.00,WUHU216HW,2013-02-10 18:10:00,
2013-02-10 13:15:00,60.1,32.9,30.08,SSE,158,5.4,6.0,36,0.00,,,0.00,WUHU216HW,2013-02-10 18:15:00,
2013-02-10 13:20:00,60.5,32.5,30.07,SSE,158,1.8,5.4,35,0.00,,,0.00,WUHU216HW,2013-02-10 18:20:00,
2013-02-10 13:25:00,60.5,31.8,30.07,ESE,113,3.4,6.7,34,0.00,,,0.00,WUHU216HW,2013-02-10 18:25:00,
2013-02-10 13:30:00,60.3,31.6,30.06,ESE,113,3.4,6.7,34,0.00,,,0.00,WUHU216HW,2013-02-10 18:30:00,
2013-02-10 13:35:00,60.3,31.6,30.07,ESE,113,2.2,6.5,34,0.00,,,0.00,WUHU216HW,2013-02-10 18:35:00,
2013-02-10 13:40:00,60.3,31.6,30.07,South,180,1.8,6.0,34,0.00,,,0.00,WUHU216HW,2013-02-10 18:40:00,
2013-02-10 13:45:00,60.7,31.9,30.07,SW,225,0.7,4.0,34,0.00,,,0.00,WUHU216HW,2013-02-10 18:45:00,
2013-02-10 13:50:00,60.8,32.0,30.08,SE,135,4.0,4.5,34,0.00,,,0.00,WUHU216HW,2013-02-10 18:50:00,
2013-02-10 13:55:00,60.8,31.3,30.08,SSW,203,1.1,4.9,33,0.00,,,0.00,WUHU216HW,2013-02-10 18:55:00,
2013-02-10 14:00:00,61.0,30.8,30.07,SE,135,5.1,5.1,32,0.00,,,0.00,WUHU216HW,2013-02-10 19:00:00,
2013-02-10 14:05:00,61.2,31.0,30.07,ESE,113,4.0,5.8,32,0.00,,,0.00,WUHU216HW,2013-02-10 19:05:00,
2013-02-10 14:10:00,61.0,30.8,30.06,SE,135,3.6,5.8,32,0.00,,,0.00,WUHU216HW,2013-02-10 19:10:00,
2013-02-10 14:15:00,61.0,30.8,30.06,SSE,158,3.4,5.8,32,0.00,,,0.00,WUHU216HW,2013-02-10 19:15:00,
2013-02-10 14:20:00,61.0,30.8,30.06,SE,135,2.9,4.7,32,0.00,,,0.00,WUHU216HW,2013-02-10 19:20:00,
2013-02-10 14:25:00,61.2,31.7,30.06,ESE,113,3.4,3.4,33,0.00,,,0.00,WUHU216HW,2013-02-10 19:25:00,
2013-02-10 14:30:00,60.8,30.6,30.05,SSE,158,3.4,5.4,32,0.00,,,0.00,WUHU216HW,2013-02-10 19:30:00,
2013-02-10 14:35:00,60.1,30.0,30.04,SSE,158,2.7,6.5,32,0.00,,,0.00,WUHU216HW,2013-02-10 19:35:00,
2013-02-10 14:40:00,59.8,29.7,30.04,SE,135,4.0,6.5,32,0.00,,,0.00,WUHU216HW,2013-02-10 19:40:00,
2013-02-10 14:45:00,59.8,30.4,30.04,SE,135,2.7,5.1,33,0.00,,,0.00,WUHU216HW,2013-02-10 19:45:00,
2013-02-10 14:50:00,59.8,30.4,30.04,SE,135,2.7,4.7,33,0.00,,,0.00,WUHU216HW,2013-02-10 19:50:00,
2013-02-10 14:55:00,59.8,30.4,30.04,SE,135,3.8,4.0,33,0.00,,,0.00,WUHU216HW,2013-02-10 19:55:00,
2013-02-10 15:00:00,59.4,30.2,30.04,SE,135,1.1,4.7,33,0.00,,,0.00,WUHU216HW,2013-02-10 20:00:00,
2013-02-10 15:05:00,59.0,29.8,30.04,ESE,113,3.4,5.1,33,0.00,,,0.00,WUHU216HW,2013-02-10 20:05:00,
2013-02-10 15:10:00,58.9,30.3,30.03,ENE,68,4.7,5.1,34,0.00,,,0.00,WUHU216HW,2013-02-10 20:10:00,
2013-02-10 15:15:00,58.7,30.3,30.04,SE,135,4.0,4.7,34,0.00,,,0.00,WUHU216HW,2013-02-10 20:15:00,
2013-02-10 15:20:00,58.5,30.1,30.04,SE,135,1.8,5.4,34,0.00,,,0.00,WUHU216HW,2013-02-10 20:20:00,
2013-02-10 15:25:00,58.5,30.1,30.04,East,90,1.1,5.4,34,0.00,,,0.00,WUHU216HW,2013-02-10 20:25:00,
2013-02-10 15:30:00,58.1,31.2,30.04,ESE,113,0.4,2.7,36,0.00,,,0.00,WUHU216HW,2013-02-10 20:30:00,
2013-02-10 15:35:00,58.0,31.0,30.04,East,90,1.8,2.5,36,0.00,,,0.00,WUHU216HW,2013-02-10 20:35:00,
2013-02-10 15:40:00,57.8,30.8,30.05,East,90,1.6,2.2,36,0.00,,,0.00,WUHU216HW,2013-02-10 20:40:00,
2013-02-10 15:45:00,57.4,30.5,30.05,ESE,113,1.8,2.9,36,0.00,,,0.00,WUHU216HW,2013-02-10 20:45:00,
2013-02-10 15:50:00,57.2,31.1,30.05,ESE,113,2.2,2.9,37,0.00,,,0.00,WUHU216HW,2013-02-10 20:50:00,
2013-02-10 15:55:00,57.1,30.9,30.05,ESE,113,2.5,3.1,37,0.00,,,0.00,WUHU216HW,2013-02-10 20:55:00,
2013-02-10 16:00:00,56.9,30.7,30.05,SE,135,1.1,3.1,37,0.00,,,0.00,WUHU216HW,2013-02-10 21:00:00,
2013-02-10 16:05:00,56.7,30.5,30.05,ESE,113,2.0,2.7,37,0.00,,,0.00,WUHU216HW,2013-02-10 21:05:00,
2013-02-10 16:10:00,56.5,30.3,30.05,SE,135,1.1,2.7,37,0.00,,,0.00,WUHU216HW,2013-02-10 21:10:00,
2013-02-10 16:15:00,56.3,30.9,30.05,ESE,113,0.9,2.7,38,0.00,,,0.00,WUHU216HW,2013-02-10 21:15:00,
2013-02-10 16:20:00,56.2,30.8,30.05,ESE,113,0.9,2.5,38,0.00,,,0.00,WUHU216HW,2013-02-10 21:20:00,
2013-02-10 16:25:00,56.0,32.0,30.04,East,90,0.7,1.8,40,0.00,,,0.00,WUHU216HW,2013-02-10 21:25:00,
2013-02-10 16:30:00,55.8,31.9,30.04,East,90,0.9,1.1,40,0.00,,,0.00,WUHU216HW,2013-02-10 21:30:00,
2013-02-10 16:35:00,55.4,32.0,30.05,East,90,1.1,1.3,41,0.00,,,0.00,WUHU216HW,2013-02-10 21:35:00,
2013-02-10 16:40:00,55.1,32.9,30.05,East,90,0.7,1.3,43,0.00,,,0.00,WUHU216HW,2013-02-10 21:40:00,
2013-02-10 16:45:00,54.5,33.0,30.05,ENE,68,0.9,1.3,44,0.00,,,0.00,WUHU216HW,2013-02-10 21:45:00,
2013-02-10 16:50:00,54.4,33.8,30.05,ENE,68,0.0,1.3,46,0.00,,,0.00,WUHU216HW,2013-02-10 21:50:00,
2013-02-10 16:55:00,53.8,33.4,30.06,ENE,68,1.1,1.1,46,0.00,,,0.00,WUHU216HW,2013-02-10 21:55:00,
2013-02-10 17:00:00,53.5,33.7,30.06,East,90,0.4,1.6,47,0.00,,,0.00,WUHU216HW,2013-02-10 22:00:00,
2013-02-10 17:05:00,53.1,33.8,30.06,ENE,68,0.7,1.6,48,0.00,,,0.00,WUHU216HW,2013-02-10 22:05:00,
2013-02-10 17:10:00,52.9,34.3,30.06,ENE,68,0.9,1.6,49,0.00,,,0.00,WUHU216HW,2013-02-10 22:10:00,
2013-02-10 17:15:00,52.6,34.5,30.06,ENE,68,1.1,1.6,50,0.00,,,0.00,WUHU216HW,2013-02-10 22:15:00,
2013-02-10 17:20:00,52.2,34.7,30.06,East,90,0.7,1.6,51,0.01,,,0.01,WUHU216HW,2013-02-10 22:20:00,
2013-02-10 17:25:00,51.7,34.6,30.06,East,90,0.9,1.6,52,0.01,,,0.01,WUHU216HW,2013-02-10 22:25:00,
2013-02-10 17:30:00,51.1,35.0,30.07,ENE,68,0.0,1.3,54,0.01,,,0.01,WUHU216HW,2013-02-10 22:30:00,
2013-02-10 17:35:00,50.8,35.1,30.07,ENE,68,0.9,1.3,55,0.01,,,0.01,WUHU216HW,2013-02-10 22:35:00,
2013-02-10 17:40:00,50.4,35.7,30.07,ENE,68,0.9,1.3,57,0.02,,,0.02,WUHU216HW,2013-02-10 22:40:00,
2013-02-10 17:45:00,50.0,35.8,30.07,NE,45,1.1,1.3,58,0.02,,,0.02,WUHU216HW,2013-02-10 22:45:00,
2013-02-10 17:50:00,49.5,36.3,30.07,NE,45,1.1,1.1,60,0.03,,,0.03,WUHU216HW,2013-02-10 22:50:00,
2013-02-10 17:55:00,49.1,36.3,30.07,NE,45,0.7,1.1,61,0.03,,,0.03,WUHU216HW,2013-02-10 22:55:00,
2013-02-10 18:00:00,48.8,36.0,30.07,ENE,68,0.7,1.1,61,0.04,,,0.04,WUHU216HW,2013-02-10 23:00:00,
2013-02-10 18:05:00,48.4,36.0,30.07,East,90,0.7,1.1,62,0.04,,,0.04,WUHU216HW,2013-02-10 23:05:00,
2013-02-10 18:10:00,48.1,36.1,30.08,ENE,68,0.4,1.1,63,0.05,,,0.05,WUHU216HW,2013-02-10 23:10:00,
2013-02-10 18:15:00,47.9,35.9,30.07,ESE,113,1.3,1.3,63,0.05,,,0.05,WUHU216HW,2013-02-10 23:15:00,
2013-02-10 18:20:00,47.7,36.1,30.07,SE,135,2.7,2.7,64,0.05,,,0.06,WUHU216HW,2013-02-10 23:20:00,
2013-02-10 18:25:00,47.3,36.2,30.06,SSE,158,1.1,2.7,65,0.05,,,0.06,WUHU216HW,2013-02-10 23:25:00,
2013-02-10 18:30:00,47.2,36.4,30.05,SE,135,2.5,3.4,66,0.06,,,0.07,WUHU216HW,2013-02-10 23:30:00,
2013-02-10 18:35:00,46.8,36.5,30.05,ESE,113,2.0,3.8,67,0.06,,,0.08,WUHU216HW,2013-02-10 23:35:00,
2013-02-10 18:40:00,46.4,36.9,30.05,SSE,158,0.9,4.5,69,0.06,,,0.08,WUHU216HW,2013-02-10 23:40:00,
2013-02-10 18:45:00,46.1,36.6,30.06,East,90,0.0,4.5,69,0.06,,,0.09,WUHU216HW,2013-02-10 23:45:00,
2013-02-10 18:50:00,46.3,37.1,30.08,North,0,0.0,1.8,70,0.06,,,0.09,WUHU216HW,2013-02-10 23:50:00,
2013-02-10 18:55:00,46.1,36.9,30.07,ESE,113,0.4,1.1,70,0.07,,,0.10,WUHU216HW,2013-02-10 23:55:00,
2013-02-10 19:00:00,46.1,37.3,30.07,SE,135,0.7,2.2,71,0.07,,,0.11,WUHU216HW,2013-02-11 00:00:00,
2013-02-10 19:05:00,46.1,37.6,30.05,East,90,0.2,2.2,72,0.08,,,0.12,WUHU216HW,2013-02-11 00:05:00,
2013-02-10 19:10:00,45.9,37.5,30.02,SE,135,4.9,4.9,72,0.07,,,0.12,WUHU216HW,2013-02-11 00:10:00,
2013-02-10 19:15:00,45.7,38.3,30.03,SE,135,2.2,4.9,75,0.07,,,0.12,WUHU216HW,2013-02-11 00:15:00,
2013-02-10 19:20:00,45.5,38.4,30.02,ENE,68,5.8,5.8,76,0.06,,,0.12,WUHU216HW,2013-02-11 00:20:00,
2013-02-10 19:25:00,45.4,37.9,30.02,ESE,113,3.8,6.0,75,0.05,,,0.12,WUHU216HW,2013-02-11 00:25:00,
2013-02-10 19:30:00,45.4,38.6,30.03,ESE,113,1.1,6.0,77,0.05,,,0.12,WUHU216HW,2013-02-11 00:30:00,
2013-02-10 19:35:00,45.4,38.6,30.03,SE,135,4.3,4.7,77,0.04,,,0.12,WUHU216HW,2013-02-11 00:35:00,
2013-02-10 19:40:00,45.4,38.6,30.02,SE,135,1.6,4.7,77,0.03,,,0.12,WUHU216HW,2013-02-11 00:40:00,
2013-02-10 19:45:00,45.2,38.4,30.00,SE,135,5.4,5.4,77,0.03,,,0.12,WUHU216HW,2013-02-11 00:45:00,
2013-02-10 19:50:00,45.2,39.1,29.98,South,180,2.2,6.3,79,0.02,,,0.12,WUHU216HW,2013-02-11 00:50:00,
2013-02-10 19:55:00,45.2,39.1,30.00,East,90,0.9,6.3,79,0.02,,,0.12,WUHU216HW,2013-02-11 00:55:00,
2013-02-10 20:00:00,45.2,39.1,30.01,ENE,68,0.7,3.6,79,0.01,,,0.12,WUHU216HW,2013-02-11 01:00:00,
2013-02-10 20:05:00,45.2,39.1,30.01,NNE,23,0.2,1.1,79,0.00,,,0.12,WUHU216HW,2013-02-11 01:05:00,
2013-02-10 20:10:00,45.2,39.1,30.03,NNE,23,0.7,1.6,79,0.00,,,0.12,WUHU216HW,2013-02-11 01:10:00,
2013-02-10 20:15:00,45.2,38.7,30.04,NE,45,0.0,1.8,78,0.00,,,0.12,WUHU216HW,2013-02-11 01:15:00,
2013-02-10 20:20:00,45.4,38.9,30.03,NE,45,1.1,1.8,78,0.00,,,0.12,WUHU216HW,2013-02-11 01:20:00,
2013-02-10 20:25:00,45.4,38.9,30.02,ESE,113,0.4,2.0,78,0.00,,,0.12,WUHU216HW,2013-02-11 01:25:00,
2013-02-10 20:30:00,45.4,38.9,30.01,NE,45,0.0,2.0,78,0.00,,,0.12,WUHU216HW,2013-02-11 01:30:00,
2013-02-10 20:35:00,45.2,39.1,30.01,SE,135,0.2,2.0,79,0.00,,,0.12,WUHU216HW,2013-02-11 01:35:00,
2013-02-10 20:40:00,45.2,38.7,30.00,SE,135,1.3,2.9,78,0.00,,,0.12,WUHU216HW,2013-02-11 01:40:00,
2013-02-10 20:45:00,45.0,38.5,30.00,SE,135,2.5,2.9,78,0.00,,,0.12,WUHU216HW,2013-02-11 01:45:00,
2013-02-10 20:50:00,45.0,38.5,29.99,East,90,0.9,2.5,78,0.00,,,0.12,WUHU216HW,2013-02-11 01:50:00,
2013-02-10 20:55:00,45.0,38.9,29.99,ENE,68,1.6,4.0,79,0.00,,,0.12,WUHU216HW,2013-02-11 01:55:00,
2013-02-10 21:00:00,45.0,38.9,29.99,ESE,113,1.1,5.4,79,0.00,,,0.12,WUHU216HW,2013-02-11 02:00:00,
2013-02-10 21:05:00,45.0,38.5,30.00,ESE,113,1.3,5.4,78,0.00,,,0.12,WUHU216HW,2013-02-11 02:05:00,
2013-02-10 21:10:00,45.0,38.9,30.00,SE,135,1.1,3.6,79,0.00,,,0.12,WUHU216HW,2013-02-11 02:10:00,
2013-02-10 21:15:00,45.0,38.9,30.00,South,180,0.0,3.6,79,0.00,,,0.12,WUHU216HW,2013-02-11 02:15:00,
2013-02-10 21:20:00,45.0,38.9,30.00,ESE,113,1.1,1.3,79,0.00,,,0.12,WUHU216HW,2013-02-11 02:20:00,
2013-02-10 21:25:00,45.0,38.9,29.99,SE,135,2.2,3.1,79,0.00,,,0.12,WUHU216HW,2013-02-11 02:25:00,
2013-02-10 21:30:00,45.0,38.9,29.99,SSE,158,1.8,3.6,79,0.00,,,0.12,WUHU216HW,2013-02-11 02:30:00,
2013-02-10 21:35:00,45.0,38.9,29.98,WSW,248,2.5,3.6,79,0.00,,,0.12,WUHU216HW,2013-02-11 02:35:00,
2013-02-10 21:40:00,45.2,39.1,29.99,SE,135,2.9,2.9,79,0.00,,,0.12,WUHU216HW,2013-02-11 02:40:00,
2013-02-10 21:45:00,45.2,39.1,29.98,East,90,2.5,2.9,79,0.00,,,0.12,WUHU216HW,2013-02-11 02:45:00,
2013-02-10 21:50:00,45.2,39.1,29.98,East,90,0.4,2.9,79,0.00,,,0.12,WUHU216HW,2013-02-11 02:50:00,
2013-02-10 21:55:00,45.4,39.2,29.98,NE,45,0.0,2.5,79,0.00,,,0.12,WUHU216HW,2013-02-11 02:55:00,
2013-02-10 22:00:00,45.4,39.2,29.99,NNW,338,0.0,1.3,79,0.00,,,0.12,WUHU216HW,2013-02-11 03:00:00,
2013-02-10 22:05:00,45.4,39.2,29.98,ENE,68,0.0,1.3,79,0.00,,,0.12,WUHU216HW,2013-02-11 03:05:00,
2013-02-10 22:10:00,45.4,39.2,29.98,NNE,23,0.0,1.1,79,0.00,,,0.12,WUHU216HW,2013-02-11 03:10:00,
2013-02-10 22:15:00,45.2,39.1,29.98,NNE,23,1.1,1.3,79,0.00,,,0.12,WUHU216HW,2013-02-11 03:15:00,
2013-02-10 22:20:00,45.2,39.4,29.98,NNE,23,0.0,1.3,80,0.00,,,0.12,WUHU216HW,2013-02-11 03:20:00,
2013-02-10 22:25:00,45.0,38.9,29.98,North,0,0.0,1.1,79,0.00,,,0.12,WUHU216HW,2013-02-11 03:25:00,
2013-02-10 22:30:00,45.0,39.2,29.98,North,0,0.0,0.4,80,0.00,,,0.12,WUHU216HW,2013-02-11 03:30:00,
2013-02-10 22:35:00,45.0,39.2,29.98,North,0,0.4,1.1,80,0.00,,,0.12,WUHU216HW,2013-02-11 03:35:00,
2013-02-10 22:40:00,44.8,39.1,29.98,NNE,23,0.4,1.3,80,0.00,,,0.12,WUHU216HW,2013-02-11 03:40:00,
2013-02-10 22:45:00,44.8,39.1,29.97,NE,45,1.6,2.2,80,0.00,,,0.12,WUHU216HW,2013-02-11 03:45:00,
2013-02-10 22:50:00,44.8,39.3,29.97,North,0,0.0,2.2,81,0.00,,,0.12,WUHU216HW,2013-02-11 03:50:00,
2013-02-10 22:55:00,44.8,39.3,29.97,ENE,68,0.0,0.9,81,0.00,,,0.12,WUHU216HW,2013-02-11 03:55:00,
2013-02-10 23:00:00,44.8,39.3,29.97,East,90,0.0,1.6,81,0.00,,,0.12,WUHU216HW,2013-02-11 04:00:00,
2013-02-10 23:05:00,44.8,39.3,29.97,SW,225,0.9,1.6,81,0.00,,,0.12,WUHU216HW,2013-02-11 04:05:00,
2013-02-10 23:10:00,44.8,39.3,29.97,ESE,113,0.0,1.3,81,0.00,,,0.12,WUHU216HW,2013-02-11 04:10:00,
2013-02-10 23:15:00,44.8,39.3,29.97,SE,135,0.0,0.9,81,0.00,,,0.12,WUHU216HW,2013-02-11 04:15:00,
2013-02-10 23:20:00,44.6,39.2,29.97,South,180,0.0,0.9,81,0.00,,,0.12,WUHU216HW,2013-02-11 04:20:00,
2013-02-10 23:25:00,44.6,39.2,29.97,ENE,68,0.0,1.1,81,0.00,,,0.12,WUHU216HW,2013-02-11 04:25:00,
2013-02-10 23:30:00,44.6,39.2,29.97,ENE,68,0.0,1.1,81,0.00,,,0.12,WUHU216HW,2013-02-11 04:30:00,
2013-02-10 23:35:00,44.6,39.2,29.97,ENE,68,0.0,0.0,81,0.00,,,0.12,WUHU216HW,2013-02-11 04:35:00,
2013-02-10 23:40:00,44.8,39.3,29.97,ENE,68,0.4,0.4,81,0.00,,,0.12,WUHU216HW,2013-02-11 04:40:00,
2013-02-10 23:45:00,44.8,39.3,29.97,SE,135,1.8,1.8,81,0.00,,,0.12,WUHU216HW,2013-02-11 04:45:00,
2013-02-10 23:50:00,45.0,39.5,29.97,SE,135,2.0,2.5,81,0.00,,,0.12,WUHU216HW,2013-02-11 04:50:00,
2013-02-10 23:55:00,45.0,39.9,29.97,ENE,68,0.4,2.5,82,0.00,,,0.12,WUHU216HW,2013-02-11 04:55:00,